📊 Raw Sensor Data
Showing records 34626 to 34650 of 84,861 total
| ID | Distance (ft) | Battery V | Battery A | Int Temp (°F) | Int Humid (%) | Ext Temp (°F) | Solar V | RSSI | SNR | Time Stamp |
|---|---|---|---|---|---|---|---|---|---|---|
| 50248 | 15.1 | 3.55 | -5 | 66 | 46 | 66 | 0.00 | -70 | 9 | 08/25/2025 11:00 PM |
| 50247 | 15.1 | 3.54 | -5 | 67 | 46 | 68 | 0.00 | -71 | 8 | 08/25/2025 10:45 PM |
| 50246 | 15.1 | 3.55 | -5 | 68 | 46 | 69 | 0.00 | -70 | 9 | 08/25/2025 10:30 PM |
| 50245 | 15.1 | 3.55 | -5 | 68 | 46 | 68 | 0.00 | -71 | 8 | 08/25/2025 10:15 PM |
| 50244 | 15.1 | 3.73 | -5 | 68 | 47 | 69 | 0.00 | -70 | 8 | 08/25/2025 10:00 PM |
| 50243 | 15.1 | 3.72 | -5 | 68 | 47 | 68 | 0.00 | -70 | 9 | 08/25/2025 09:45 PM |
| 50242 | 15.1 | 3.55 | -5 | 68 | 48 | 69 | 0.00 | -71 | 9 | 08/25/2025 09:30 PM |
| 50241 | 15.1 | 3.55 | -5 | 69 | 48 | 70 | 0.00 | -70 | 9 | 08/25/2025 09:15 PM |
| 50240 | 15.1 | 3.55 | -35 | 70 | 49 | 70 | 0.00 | -71 | 9 | 08/25/2025 09:00 PM |
| 50239 | 15.1 | 3.73 | -5 | 70 | 50 | 70 | 0.00 | -70 | 9 | 08/25/2025 08:45 PM |
| 50238 | 15.1 | 3.54 | -5 | 72 | 51 | 71 | 0.00 | -70 | 9 | 08/25/2025 08:30 PM |
| 50237 | 15.1 | 3.73 | -5 | 73 | 53 | 72 | 0.00 | -70 | 8 | 08/25/2025 08:15 PM |
| 50236 | 15.1 | 3.55 | -5 | 75 | 54 | 73 | 0.60 | -71 | 7 | 08/25/2025 08:00 PM |
| 50235 | 15.2 | 3.54 | -7 | 78 | 55 | 74 | 2.20 | -71 | 8 | 08/25/2025 07:45 PM |
| 50234 | 15.2 | 3.76 | 0 | 83 | 54 | 77 | 4.50 | -70 | 9 | 08/25/2025 07:30 PM |
| 50233 | 15.2 | 3.80 | 0 | 87 | 54 | 81 | 4.60 | -70 | 8 | 08/25/2025 07:15 PM |
| 50232 | 15.2 | 3.88 | -5 | 91 | 53 | 84 | 4.50 | -72 | 8 | 08/25/2025 07:00 PM |
| 50231 | 15.2 | 3.78 | 18 | 94 | 52 | 86 | 4.60 | -71 | 9 | 08/25/2025 06:45 PM |
| 50230 | 15.2 | 3.70 | 0 | 97 | 51 | 89 | 5.10 | -71 | 8 | 08/25/2025 06:30 PM |
| 50229 | 15.3 | 3.70 | 0 | 99 | 51 | 90 | 5.10 | -71 | 7 | 08/25/2025 06:15 PM |
| 50228 | 15.3 | 3.70 | 0 | 100 | 50 | 92 | 5.10 | -69 | 8 | 08/25/2025 06:00 PM |
| 50227 | 15.4 | 3.99 | 0 | 102 | 49 | 91 | 5.10 | -70 | 6 | 08/25/2025 05:45 PM |
| 50226 | 15.5 | 3.72 | 0 | 104 | 49 | 93 | 5.10 | -70 | 8 | 08/25/2025 05:30 PM |
| 50225 | 15.3 | 3.71 | 0 | 105 | 48 | 95 | 5.10 | -70 | 8 | 08/25/2025 05:15 PM |
| 50224 | 15.4 | 3.76 | 0 | 107 | 47 | 97 | 5.10 | -71 | 8 | 08/25/2025 05:00 PM |